Home > Weather > Konya > Past weeks

Flag for Turkey Past Weather in Konya, Turkey — Yesterday and Last 2 Weeks

Now
72 °F

Clear.


Feels Like: 77 °F
Forecast: 61 / 92 °F
Wind: 7 mph from North

Location: Konya Airport

Current Time: Jun 26, 2016 at 2:18:04 AM

Latest Report: Jun 26, 2016 at 1:50 AM


Visibility: 10 mi

Pressure: 30.01 "Hg (26.60 "Hg at 1041m altitude)

Humidity: 47%

Dew Point: 50 °F

Location of KonyaLocation

Past Weather in Konya — Graph

°F

Konya Temperature Yesterday

Maximum temperature yesterday: 88 °F (at 3:50 PM)
Minimum temperature yesterday: 66 °F (at 5:50 AM)
Average temperature yesterday: 77 °F

High & Low Weather Summary for the Past Weeks

 TemperatureHumidityPressure
High90 °F (Jun 22, 3:50 PM)72% (Jun 11, 3:50 AM)30.15 "Hg (Jun 11, 3:50 AM)
Low52 °F (Jun 11, 3:50 AM)11% (Jun 13, 2:50 PM)29.77 "Hg (Jun 14, 8:50 PM)
Average74 °F35%30.02 "Hg
* Reported Jun 11 12:50 AM — Jun 26 12:50 AM, Konya, Weather by CustomWeather, © 2016

Note: Actual official high and low records may vary slightly from our data, if they occured in-between our weather recording intervals... More about our weather records

Advertising

Konya Weather History for the Previous 24 Hours

Scroll right to see more
 ConditionsComfort  
Time TempWeatherWind HumidityBarometerVisibility
12:50 AM
Sun, Jun 26
73 °FClear.9 mph38%29.98 "Hg10 mi
11:50 PM
Sat, Jun 25
73 °FClear.8 mph33%29.98 "Hg10 mi
10:50 PM73 °FClear.7 mph36%29.98 "Hg10 mi
9:50 PM75 °FClear.7 mph34%29.98 "Hg10 mi
8:50 PM77 °FSunny.8 mph32%29.98 "Hg10 mi
7:50 PM82 °FPassing clouds.13 mph26%29.98 "HgN/A
6:50 PM86 °FPassing clouds.13 mph24%29.98 "HgN/A
5:50 PM86 °FPassing clouds.12 mph22%29.95 "HgN/A
4:50 PM88 °FPassing clouds.12 mph21%29.98 "HgN/A
3:50 PM88 °FPassing clouds.13 mph22%29.98 "HgN/A
2:50 PM86 °FSunny.15 mph24%29.98 "Hg10 mi
1:50 PM84 °FPassing clouds.12 mph25%30.01 "HgN/A
12:50 PM82 °FPassing clouds.14 mph30%30.01 "HgN/A
11:50 AM79 °FPassing clouds.16 mph39%30.01 "HgN/A
10:50 AM77 °FPassing clouds.15 mph44%30.01 "HgN/A
9:50 AM75 °FPassing clouds.16 mph47%30.04 "HgN/A
8:50 AM73 °FSunny.13 mph53%30.04 "Hg10 mi
7:50 AM72 °FSunny.15 mph57%30.04 "Hg10 mi
6:50 AM70 °FSunny.13 mph60%30.01 "Hg10 mi
5:50 AM66 °FClear.13 mph64%30.01 "Hg10 mi
4:50 AM68 °FClear.12 mph60%30.01 "Hg10 mi
3:50 AM70 °FClear.13 mph60%30.01 "Hg10 mi
2:50 AM70 °FClear.15 mph60%30.01 "Hg10 mi
Weather by CustomWeather, © 2016

See weather overviewHow to use our weather pages